Terug naar catalogus

SL-12 DEB

LostHEO
NORAD 43606·DEBRIS·🇷🇺 Russia

Gelanceerd Mar 1, 2010 vanaf Baikonur Cosmodrome

Loading…

Volgende Passages (komende 24 uur)

TLE

VerouderdSource: Space-Track

Epoch: Dec 23, 2022, 02:16 UTC

1 43606U 10007AH  22357.09463887  .00000693  00000-0  13069-2 0  9990
2 43606  65.4684 269.9631 5693548 311.7601  11.9660  4.32107106 71093

Volg SL-12 DEB in realtime met AllMySat

Download on the App Store